Погода в Велижанах

Россия / Тюменская область     57°32′53″N   65°45′02″E
темп.,
°C
ветер,
м/с
пор.,
м/с
влажн.,
%
обл.,
%
осадки,
мм/ч
давл.,
гПа
погр.,
м
23 апреля, пт
пт2323:00+9ю51361100 0.0 1034498
02:00+7ююв51264100 0.0 1034390
05:00+6ююв41166100 0.0 1034320
08:00+8ююв41063100 0.0 1033340
11:00+10ю5859100 0.0 1033632
14:00+13ю5948100 0.0 10321509
17:00+13юз5952100 0.1 10321786
20:00+10ю51064100 0.3 10311194
24 апреля, сб
сб2423:00+9ю4873100 0.9 1031486
02:00+8ююв2565100 0.6 1030163
05:00+5юв2665100 0.6 1029158
08:00+8ююв3553100 0.0 1028296
11:00+10ююв4540100 0.0 1027846
14:00+11ю5746100 0.0 10261659
17:00+10ююв4750100 0.0 10251465
20:00+8юв3853100 0.0 1024397
25 апреля, вс
вс2523:00+7вюв3958100 0.0 1023347
02:00+6юв4960100 0.0 1021372
05:00+5в3866100 0.0 1021250
08:00+7вюв4957100 0.0 1019630
11:00+10юв5747100 0.0 10181126
14:00+10юв6759100 0.0 10171259
17:00+10вюв475316 0.1 10161340
20:00+8в4105725 0.0 1014382
26 апреля, пн
пн2623:00+6в39695 0.0 1012210
02:00+6ююз388394 0.0 1011206
05:00+4юз311933 0.0 1012416
08:00+7юз587744 0.0 1013653
11:00+7зюз696672 0.9 10141381
14:00+6з61079100 0.3 1016941
17:00+11з594481 0.4 10152027
20:00+8юз385544 0.1 1016172
27 апреля, вт
вт2723:00+5юз3116696 0.1 1016260
02:00+4юз2769100 0.0 1016147
05:00+3юз2374100 0.0 101653
08:00+7ююз2459100 0.0 1015228
11:00+11ююз4541100 0.0 10131520
14:00+13ююз333510 0.0 10111971
17:00+13ю223465 0.0 10092041
20:00+10ю224931 0.0 100926